Location: Gönnheim
(49.4488°N, 8.2383°E)
Time: 06:53:02
(UTC+00:00)

Cosmos 1766 - Pass Details

Date: 19 May 2025
Orbit: 443 x 457 km, 82.5° (Epoch: 14 June)

Event Time Altitude Azimuth Distance (km) Brightness Sun altitude
Rises 23:00:23 0° 341° (NNW) 2,462 8.1 -20.4°
Reaches altitude 10° 23:02:37 10° 330° (NNW) 1,582 6.6 -20.4°
Maximum altitude 23:05:38 29° 268° (W) 852 4.3 -20.5°
Enters shadow 23:05:46 29° 264° (W) 853 4.2 -20.5°
